Regional Weather Roundup
Issued by NWS

Home | Current Version | Previous Version | Graphics & Text | Print | Product List | Glossary On
Versions: 1 2 3 4 5 6 7 8 9 10 11 12 13 14 15 16 17 18 19 20 21 22 23 24 25 26 27 28 29 30 31 32 33 34 35 36 37 38 39 40 41 42 43 44 45 46 47 48 49 50
000
ASUS43 KMPX 030010
RWRMN
WEATHER ROUNDUP FOR MINNESOTA
NATIONAL WEATHER SERVICE TWIN CITIES/CHANHASSEN MN
700 PM CDT TUE JUN 02 2015


NOTE: "FAIR" INDICATES FEW OR NO CLOUDS BELOW 12,000 FEET WITH NO
SIGNIFICANT WEATHER AND/OR OBSTRUCTIONS TO VISIBILITY. N/A MEANS
CURRENT SKY AND/OR WEATHER CONDITIONS ARE NOT AVAILABLE.

MNZ060>063-068>070-030100-
   Twin Cities Metro

CITY           SKY/WX    TMP DP  RH WIND       PRES   REMARKS
TWIN CITIES    PTSUNNY   75  52  44 S14G25    29.91F
6HR MIN TEMP:  72; 6HR MAX TEMP:  76;

ST PAUL        PTSUNNY   74  53  48 SE16      29.92S
CRYSTAL        CLOUDY    75  53  46 S10       29.90S
BLAINE         PTSUNNY   75  54  46 S14G20    29.90S
LAKEVILLE      PTSUNNY   73  52  46 S12G20    29.91F
EDEN PRAIRIE   PTSUNNY   74  53  48 S12       29.90S
6HR MIN TEMP:  72; 6HR MAX TEMP:  77;

SOUTH ST PAUL  PTSUNNY   74  50  42 SE14G20   29.92S
LAKE ELMO      FAIR      72  54  53 S14       29.94S
$$
MNZ001>005-007-008-013>017-022>024-027-028-030100-
   Northwest Minnesota

CITY           SKY/WX    TMP DP  RH WIND       PRES   REMARKS
BEMIDJI        CLOUDY    70  53  53 S14G20    29.83F
HALLOCK        TSTM      63  61  94 E9        29.80S
ROSEAU         DRIZZLE   61  55  82 CALM      29.83S
WARROAD        HVY RAIN  61  57  88 CALM      29.85R
THIEF RVR FALL CLOUDY    66  61  82 CALM      29.79F
CROOKSTON      PTSUNNY   70  63  78 E5        29.77F
FOSSTON        CLOUDY    70  64  83 SE9       29.79F
DETROIT LAKES  MOSUNNY   72  55  56 SE10      29.80F
MOORHEAD       PTSUNNY   79  63  57 S12       29.73F
PARK RAPIDS    CLOUDY    71  53  52 SE13      29.83F
MAHNOMEN       MOCLDY    71  57  61 SE12G17   29.78F
$$
MNZ006-009>011-018-025>026-030100-
   North Central Minnesota

CITY           SKY/WX    TMP DP  RH WIND       PRES   REMARKS
BAUDETTE       LGT RAIN  60  58  92 N6        29.84R
FLAG ISLAND    HVY RAIN  57  57 100 SE3       29.83S
INTL FALLS     LGT RAIN  61  58  90 SE5       29.84F
6HR MIN TEMP:  57; 6HR MAX TEMP:  66; 6HR PCP:  0.08;

WASKISH        CLOUDY    66  61  82 CALM      29.83S
BIG FORK       LGT RAIN  68  52  56 S8        29.86S
LONGVILLE      CLOUDY    70  54  56 SE10      29.87S
GRAND RAPIDS   CLOUDY    68  48  49 S15G23    29.89S
CRANE LAKE     CLOUDY    68  52  56 CALM      29.88R
ORR            CLOUDY    70  46  43 CALM      29.84F
COOK           CLOUDY    72  48  43 S8        29.88S
WALKER         CLOUDY    69  52  53 S10G16    29.85F
$$
MNZ012-019>021-037-030100-
   Northeast Minnesota

CITY           SKY/WX    TMP DP  RH WIND       PRES   REMARKS
DULUTH         CLOUDY    61  43  51 SE8       29.93F
6HR MIN TEMP:  61; 6HR MAX TEMP:  74;

ELY            CLOUDY    72  45  37 S10G21    29.90S
HIBBING        CLOUDY    71  49  45 S6        29.89S
EVELETH        CLOUDY    72  46  40 S8G18     29.91R
DULUTH HARBOR  PTSUNNY   48  41  76 NE6       29.96S
TWO HARBORS    HAZE      66  52  59 SE3       29.92S VSB 1/2
SILVER BAY     PTSUNNY   61  43  51 NE7       29.93R
GRAND MARAIS     N/A     51  41  68 NE12      29.96F
G MARAIS ARPRT CLOUDY    57  39  51 SE5       29.98S
$$
MNZ029>031-032-039>041-046>048-054>057-064-030100-
   West Central Minnesota

CITY           SKY/WX    TMP DP  RH WIND       PRES   REMARKS
FERGUS FALLS   CLOUDY    79  61  53 S17       29.76F
WHEATON        MOSUNNY   79  61  53 S16G22    29.76S
MORRIS         MOSUNNY   82  59  44 S22       29.77R
ALEXANDRIA     PTSUNNY   77  56  48 S20G30    29.83S
ELBOW LAKE     PTSUNNY   78  60  54 S18G25    29.77S
WADENA         CLOUDY    73  54  49 S15       29.81F
GLENWOOD       SUNNY     77  57  50 S21G30    29.83F
APPLETON       MOSUNNY   82  57  42 S16G23    29.77S
BENSON         SUNNY     79  55  44 S13G25    29.79S
ORTONVILLE     MOSUNNY   81  61  50 S17G23    29.76S
MADISON        SUNNY     81  59  47 S25       29.76S
WILLMAR        FAIR      79  55  44 S14G25    29.85R
$$
MNZ033>034-036-042>043-049>051-058-059-030100-
   Central Minnesota

CITY           SKY/WX    TMP DP  RH WIND       PRES   REMARKS
ST CLOUD       PTSUNNY   75  53  46 S15G23    29.86F
6HR MIN TEMP:  71; 6HR MAX TEMP:  75;

SAUK CENTRE    FAIR      77  50  37 S22G30    29.84F
PAYNESVILLE    SUNNY     75  46  36 SE16G25   29.85R
AITKIN         CLOUDY    70  54  56 S9        29.88S
PINE RIVER     PTSUNNY   68  55  64 S13       29.90F
BRAINERD       CLOUDY    69  54  58 SE10      29.87F
STAPLES        PTSUNNY   73  52  46 SE10G17   29.84F
LONG PRAIRIE   FAIR      75  46  35 SE17G26   29.85S
LITTLE FALLS   MOSUNNY   75  50  41 SE14      29.86S
LITCHFIELD     MOSUNNY   79  46  31 S10G18    29.86S
BUFFALO        PTSUNNY   76  51  42 SE10G20   29.89S
MAPLE LAKE     PTSUNNY   77  55  46 SE8G16    29.89R
$$
MNZ037-044-045-052-053-030100-
   East Central Minnesota

CITY           SKY/WX    TMP DP  RH WIND       PRES   REMARKS
PRINCETON      PTSUNNY   75  54  46 SE12      29.90F
MORA           CLOUDY    70  52  52 S6        29.92F
CAMBRIDGE      CLOUDY    75  55  50 SE7       29.90S
RUSH CITY      CLOUDY    72  54  53 S9G17     29.93S
MOOSE LAKE     CLOUDY    70  52  52 S8        29.90S
HINCKLEY       FAIR      70  54  56 S9        29.93S
CLOQUET        CLOUDY    64  46  52 E7        29.93R
MCGREGOR       CLOUDY    70  54  56 S10       29.90S
$$
MNZ071>073-080-081-089-090-097-098-030100-
   Southwest Minnesota

CITY           SKY/WX    TMP DP  RH WIND       PRES   REMARKS
MONTEVIDEO     SUNNY     79  57  47 SW15G23   29.80S
GRANITE FALLS  SUNNY     79  57  46 SE22G30   29.82S
CANBY          SUNNY     79  59  50 S15G26    29.78S
MARSHALL       SUNNY     81  57  44 S28G36    29.80S
REDWOOD FALLS  SUNNY     78  55  44 S28G37    29.83S
OLIVIA         SUNNY     73  52  46 S20G25    29.84S
PIPESTONE      SUNNY     79  61  53 S26G32    29.83S
WINDOM         MOSUNNY   75  54  46 SE23G29   29.87S
WORTHINGTON    MOSUNNY   75  55  50 S23G31    29.86F
JACKSON        MOSUNNY   75  54  46 S22       29.90F
TRACY          SUNNY     79  58  48 S16G30    29.82F
SLAYTON        SUNNY     77  56  48 S23G30    29.85S
$$
MNZ065>067-074>077-082>085-091>093-030100-
   South Central Minnesota

CITY           SKY/WX    TMP DP  RH WIND       PRES   REMARKS
MANKATO        PTSUNNY   75  50  41 S17G26    29.90F
NEW ULM        MOSUNNY   75  48  38 S16G26    29.87F
ST JAMES       PTSUNNY   77  52  41 SE20      29.89F
FAIRMONT       MOSUNNY   75  48  38 S21       29.90S
GLENCOE        PTSUNNY   79  53  41 S12G20    29.88S
FARIBAULT      MOSUNNY   75  54  46 S12G20    29.93F
OWATONNA       MOSUNNY   73  50  43 SE20G25   29.94F
WASECA         MOSUNNY   72  48  43 S18G24    29.94S
ALBERT LEA     MOSUNNY   73  48  40 S12G20    29.95S
$$
MNZ078>079-086>088-094>096-030100-
   Southeast Minnesota

CITY           SKY/WX    TMP DP  RH WIND       PRES   REMARKS
ROCHESTER      MOSUNNY   71  49  45 S16       29.99S
6HR MIN TEMP:  68; 6HR MAX TEMP:  74;

RED WING       MOSUNNY   75  48  38 S8        29.95S
STANTON        MOSUNNY   74  52  46 S15G21    29.92F
DODGE CENTER   MOSUNNY   73  52  46 S18G24    29.97S
WINONA         SUNNY     73  54  49 S3        29.99S
AUSTIN         MOSUNNY   72  54  53 S10       29.97F
PRESTON        MOSUNNY   71  48  45 S12       30.00S
$$
ABBREVIATIONS USED IN REMARKS
   TC - TEMPERATURES IN CELSIUS
  WCI - WIND CHILL INDEX
   HX - HEAT INDEX
  VSB - VISIBILITY
$$



USA.gov is the U.S. government's official web portal to all federal, state and local government web resources and services.